PBO Station Position Time Series. Reference Frame : NAM14
Format Version,1.1.1
4-character ID,P683
Station name,ChesterfldID2006
Begin Date, 2006-09-05
End Date, 2023-06-26
Release Date, 2023-06-27
Reference position, 42.8266972104 North Latitude, -111.7345384571 East Longitude, 2065.71351 meters elevation,
Date, North (mm), East (mm), Vertical (mm), North Std. Deviation (mm), East Std. Deviation (mm),              Vertical Std. Deviation (mm), Quality,
2006-09-05,0.00, 0.00, 0.00, 2.24, 1.71, 7.64, repro,
2006-09-06,-0.52, -0.79, 0.17, 2.23, 1.73, 7.69, repro,
2006-09-07,-0.53, -0.63, 4.51, 2.20, 1.71, 7.59, repro,
2006-09-08,-0.72, -1.82, 1.20, 2.21, 1.71, 7.59, repro,
2006-09-09,1.17, -0.41, 0.80, 2.17, 1.62, 7.25, repro,
2006-09-10,-0.01, 0.82, 4.59, 2.24, 1.73, 7.72, repro,
2006-09-11,-0.13, 0.51, 0.71, 2.14, 1.63, 7.24, repro,
2006-09-12,0.08, 0.32, 2.61, 2.14, 1.62, 7.23, repro,
2006-09-13,-0.33, 0.11, 7.91, 2.15, 1.62, 7.24, repro,
2006-09-14,-0.04, 0.84, 5.81, 2.29, 1.68, 7.60, repro,
2006-09-15,-0.17, 0.61, 6.89, 2.20, 1.60, 7.33, repro,
2006-09-16,0.99, -0.84, 7.67, 2.12, 1.59, 7.16, repro,
2006-09-17,-2.24, -0.71, 4.33, 2.11, 1.58, 7.08, repro,
2006-09-18,0.22, 0.29, 7.04, 2.12, 1.58, 7.08, repro,
2006-09-19,0.76, -0.93, 3.96, 2.11, 1.57, 7.06, repro,
2006-09-20,0.47, -0.18, 3.76, 2.11, 1.57, 7.04, repro,
2006-09-21,-0.93, -1.05, 2.82, 2.16, 1.63, 7.26, repro,
2006-09-22,-1.34, -2.00, 8.32, 2.20, 1.65, 7.36, repro,
2006-09-23,-0.03, -0.96, 1.25, 2.20, 1.62, 7.24, repro,
2006-09-24,0.53, -0.54, -1.33, 2.23, 1.64, 7.35, repro,
2006-09-25,0.70, 0.39, 1.21, 2.23, 1.64, 7.51, repro,
2006-09-26,0.82, -0.16, -0.66, 2.17, 1.62, 7.25, repro,
2006-09-27,0.38, -0.89, -0.61, 2.22, 1.64, 7.51, repro,
2006-09-28,-0.48, -0.40, 2.81, 2.14, 1.62, 7.15, repro,
2006-09-29,-0.25, -1.03, 7.03, 2.22, 1.70, 7.46, repro,
2006-09-30,0.75, -0.51, 7.31, 2.16, 1.62, 7.30, repro,
2006-10-01,-0.14, -0.60, 5.03, 2.20, 1.68, 7.47, repro,
2006-10-02,-0.11, -1.20, -0.12, 2.22, 1.70, 7.44, repro,
2006-10-03,-1.09, -0.06, -4.66, 2.20, 1.71, 7.49, repro,
2006-10-04,2.16, -0.49, -0.03, 2.18, 1.64, 7.31, repro,
2006-10-05,1.51, 1.01, -9.07, 2.17, 1.61, 7.27, repro,
2006-10-06,1.21, -0.15, -6.17, 2.15, 1.60, 7.20, repro,
2006-10-07,-0.26, -0.30, -5.07, 2.30, 1.75, 7.87, repro,
2006-10-08,1.07, -0.43, -6.35, 2.17, 1.64, 7.33, repro,
2006-10-09,0.81, -1.40, -2.81, 2.21, 1.71, 7.48, repro,
2006-10-10,0.79, 0.21, 1.43, 2.17, 1.65, 7.39, repro,
2006-10-11,1.01, -0.17, -0.96, 2.20, 1.68, 7.49, repro,
2006-10-12,0.43, -0.23, -1.89, 2.12, 1.59, 7.09, repro,
2006-10-13,0.73, -0.87, 1.15, 2.08, 1.59, 7.07, repro,
2006-10-14,0.74, -0.13, 2.79, 2.14, 1.67, 7.36, repro,
2006-10-15,0.21, -1.03, 7.28, 2.14, 1.63, 7.21, repro,
2006-10-16,-0.16, -1.71, 8.21, 2.11, 1.62, 7.21, repro,
2006-10-17,1.70, -0.39, 7.54, 2.17, 1.71, 7.51, repro,
2006-10-18,0.31, -0.67, 1.93, 2.09, 1.61, 7.13, repro,
2006-10-19,0.32, -0.87, 0.63, 2.30, 1.74, 7.75, repro,
2006-10-20,0.35, -0.08, -1.88, 2.56, 2.01, 9.40, repro,
2006-10-21,0.00, -0.96, 0.91, 2.34, 1.83, 8.20, repro,
2006-10-22,1.04, -0.17, -5.76, 2.12, 1.67, 7.30, repro,
2006-10-23,0.12, 0.03, -4.21, 2.28, 1.73, 7.82, repro,
2006-10-24,-0.76, -1.10, -0.12, 2.31, 1.79, 8.00, repro,
2006-10-25,0.04, -0.87, 1.73, 2.33, 1.76, 7.81, repro,
2006-10-26,-1.12, -1.71, -1.62, 2.20, 1.72, 7.50, repro,
2006-10-27,0.95, -0.01, -4.22, 2.10, 1.64, 7.19, repro,
2006-10-28,0.07, 0.31, -3.59, 2.24, 1.73, 7.67, repro,
2006-10-29,0.59, 0.13, 3.14, 2.12, 1.67, 7.31, repro,
2006-10-30,2.44, -1.01, -7.65, 2.08, 1.61, 7.14, repro,
2006-10-31,0.45, -0.42, -1.67, 2.13, 1.67, 7.34, repro,
2006-11-01,0.83, -0.08, -2.53, 2.29, 1.78, 7.78, repro,
2006-11-02,1.31, -0.57, -2.28, 2.16, 1.73, 7.49, repro,
2006-11-03,-2.28, -0.61, -1.63, 2.09, 1.62, 7.14, repro,
2006-11-04,-0.52, 0.54, -5.35, 2.24, 1.76, 7.70, repro,
2006-11-05,0.20, 0.00, -6.20, 2.17, 1.66, 7.37, repro,
2006-11-06,0.07, 0.65, -4.93, 2.09, 1.61, 7.12, repro,
2006-11-07,0.48, -0.21, -11.35, 2.23, 1.73, 7.52, repro,
2006-11-08,0.13, 1.20, 7.55, 2.20, 1.69, 7.43, repro,
2006-11-09,1.53, -0.80, 4.62, 2.23, 1.73, 7.55, repro,
2006-11-10,0.94, -0.73, -0.39, 2.16, 1.62, 7.25, repro,
2006-11-11,0.00, -1.22, -1.68, 2.19, 1.66, 7.37, repro,
2006-11-12,-0.04, -0.56, -2.65, 2.24, 1.71, 7.54, repro,
2006-11-13,-0.12, -0.20, 4.39, 2.17, 1.65, 7.31, repro,
2006-11-14,1.76, 0.76, 9.76, 2.08, 1.58, 7.07, repro,
2006-11-15,-0.09, -0.64, -1.12, 2.07, 1.58, 7.10, repro,
2006-11-16,0.24, -0.27, 5.44, 2.08, 1.58, 7.09, repro,
2006-11-17,-0.48, -0.81, -0.64, 2.11, 1.61, 7.20, repro,
2006-11-18,-0.41, -0.41, -0.13, 2.07, 1.58, 7.04, repro,
2006-11-19,0.58, -0.21, -7.19, 2.06, 1.58, 7.05, repro,
2006-11-20,0.43, 0.24, -9.10, 2.06, 1.58, 7.07, repro,
2006-11-21,0.22, 0.05, 1.92, 2.07, 1.58, 7.06, repro,
2006-11-22,0.48, 0.41, 0.84, 2.06, 1.58, 7.03, repro,
2006-11-23,1.44, 0.08, 1.81, 2.10, 1.62, 7.21, repro,
2006-11-24,0.83, -0.86, 2.35, 2.15, 1.66, 7.36, repro,
2006-11-25,-0.62, -0.66, -0.77, 2.09, 1.60, 7.09, repro,
2006-11-26,-0.14, -0.47, 2.06, 2.12, 1.61, 7.14, repro,
2006-11-27,0.93, -0.32, -1.20, 2.11, 1.60, 7.10, repro,
2006-11-28,-0.05, -0.95, 7.03, 2.06, 1.58, 6.95, repro,
2006-11-29,0.35, -0.84, 1.39, 2.06, 1.58, 6.95, repro,
2006-11-30,-0.57, -1.54, -6.64, 2.06, 1.59, 7.04, repro,
2006-12-01,0.29, -0.93, -5.17, 2.06, 1.59, 7.00, repro,
2006-12-02,0.30, -1.03, -11.45, 2.07, 1.58, 6.99, repro,
2006-12-03,-0.99, -0.03, -8.07, 2.07, 1.59, 7.04, repro,
2006-12-04,-0.84, -0.78, -9.51, 2.11, 1.59, 7.09, repro,
2006-12-05,-1.10, -0.60, -3.77, 2.13, 1.70, 7.36, repro,
2006-12-06,0.01, -1.19, -3.63, 2.14, 1.71, 7.46, repro,
2006-12-07,-0.47, -0.52, -6.57, 2.11, 1.63, 7.21, repro,
2006-12-08,-0.76, -0.17, -4.00, 2.12, 1.64, 7.24, repro,
2006-12-09,-1.19, 0.28, 3.28, 2.28, 1.74, 7.77, repro,
2006-12-10,-0.75, -0.20, 1.31, 2.15, 1.63, 7.26, repro,
2006-12-11,-0.90, -1.25, 0.02, 2.16, 1.65, 7.32, repro,
2006-12-12,-1.32, -0.91, -1.59, 2.22, 1.68, 7.59, repro,
2006-12-13,-2.07, -0.96, 1.89, 2.11, 1.63, 7.27, repro,
2006-12-14,-2.05, 2.38, 11.78, 2.06, 1.59, 7.06, repro,
2006-12-15,-0.79, 1.18, 6.15, 2.23, 1.76, 7.73, repro,
2006-12-16,-0.50, -0.60, 0.64, 2.19, 1.71, 7.45, repro,
2006-12-17,-0.71, -1.59, 2.01, 2.26, 1.77, 7.94, repro,
2006-12-18,-1.05, -0.90, -7.82, 2.44, 1.85, 8.63, repro,
2006-12-19,-1.51, -1.59, -0.82, 2.27, 1.77, 7.90, repro,
2006-12-20,-1.43, -1.73, 3.06, 2.24, 1.70, 7.52, repro,
2006-12-21,-1.81, -1.97, -1.40, 2.11, 1.67, 7.30, repro,
2006-12-22,-1.24, -2.35, -5.08, 2.44, 2.00, 8.63, repro,
2006-12-23,-0.55, -1.85, -12.96, 2.17, 1.67, 7.58, repro,
2006-12-24,-1.82, -1.65, -9.57, 2.09, 1.60, 7.12, repro,
2006-12-25,-3.06, -1.87, -6.43, 2.16, 1.68, 7.39, repro,
2006-12-26,-2.73, -1.83, 2.08, 2.26, 1.68, 7.63, repro,
2006-12-27,-0.96, -0.53, 3.71, 2.24, 1.70, 7.64, repro,
2006-12-28,-0.07, -2.78, -1.08, 2.59, 2.05, 9.46, repro,
2006-12-29,-1.01, -1.89, -10.44, 2.30, 1.85, 8.28, repro,
2006-12-30,-2.34, -1.85, -6.66, 2.34, 1.82, 8.19, repro,
2006-12-31,-2.51, -2.30, -7.99, 2.38, 1.82, 8.42, repro,
2007-01-01,-2.35, -1.23, -2.41, 2.66, 2.17, 9.80, repro,
2007-01-02,-2.96, -1.53, -2.36, 2.44, 1.92, 8.52, repro,
2007-01-03,-2.11, -2.01, 3.35, 2.19, 1.73, 7.67, repro,
2007-01-04,-1.49, 0.38, 8.08, 2.08, 1.63, 7.25, repro,
2007-01-05,-1.66, -1.85, 2.98, 2.18, 1.72, 7.54, repro,
2007-01-06,-3.40, -2.37, -1.72, 2.10, 1.66, 7.26, repro,
2007-01-07,-2.82, -1.61, -9.23, 2.09, 1.62, 7.10, repro,
2007-01-08,-1.34, -3.34, -15.11, 2.15, 1.66, 7.31, repro,
2007-01-09,-2.23, 0.17, -7.09, 2.12, 1.62, 7.10, repro,
2007-01-10,-2.45, -1.39, -3.50, 2.15, 1.66, 7.24, repro,
2007-01-11,-1.06, -2.15, -2.30, 2.14, 1.63, 7.20, repro,
2007-01-12,-0.66, -1.89, -6.99, 2.07, 1.58, 6.97, repro,
2007-01-13,-0.98, -1.60, -7.02, 2.03, 1.57, 6.85, repro,
2007-01-14,-1.84, -2.05, -10.24, 2.03, 1.58, 6.92, repro,
2007-01-15,-2.54, -2.06, -14.37, 2.06, 1.56, 6.95, repro,
2007-01-16,-3.37, -1.78, -13.07, 2.08, 1.58, 7.04, repro,
2007-01-17,-2.46, -2.05, -8.83, 2.08, 1.61, 6.99, repro,
2007-01-18,-1.74, -1.99, -14.21, 2.07, 1.61, 7.01, repro,
2007-01-19,-1.77, -1.60, -12.78, 2.08, 1.58, 7.04, repro,
2007-01-20,-2.99, -1.74, -6.97, 2.10, 1.59, 7.11, repro,
2007-01-21,-2.72, -2.00, -4.28, 2.05, 1.56, 6.91, repro,
2007-01-22,-2.56, -2.16, -7.86, 2.04, 1.56, 6.85, repro,
2007-01-23,-1.85, -2.07, -11.68, 2.03, 1.56, 6.86, repro,
2007-01-24,-2.60, -1.77, -13.71, 2.03, 1.55, 6.85, repro,
2007-01-25,-2.54, -1.14, -14.98, 2.10, 1.59, 7.01, repro,
2007-01-26,-3.36, -1.52, -8.16, 2.05, 1.56, 6.90, repro,
2007-01-27,-2.88, -1.66, -8.30, 2.03, 1.56, 6.83, repro,
2007-01-28,-1.85, -2.40, -10.47, 2.03, 1.56, 6.86, repro,
2007-01-29,-2.73, -1.89, -10.57, 2.03, 1.55, 6.83, repro,
2007-01-30,-2.70, -1.89, -9.18, 2.04, 1.56, 6.85, repro,
2007-01-31,-2.46, -2.58, -1.97, 2.04, 1.56, 6.88, repro,
2007-02-01,-2.12, -2.81, -3.74, 2.05, 1.60, 7.02, repro,
2007-02-02,-2.62, -2.57, -2.21, 2.08, 1.57, 7.01, repro,
2007-02-03,-2.21, -2.45, -6.43, 2.09, 1.58, 7.03, repro,
2007-02-04,-2.81, -2.00, -5.67, 2.05, 1.56, 6.91, repro,
2007-02-05,-2.71, -1.26, -13.12, 2.05, 1.57, 6.93, repro,
2007-02-06,-3.36, -2.28, -10.40, 2.11, 1.59, 7.07, repro,
2007-02-07,-1.94, -2.44, -9.59, 2.05, 1.57, 6.89, repro,
2007-02-08,-1.57, -2.11, -11.00, 2.08, 1.61, 7.05, repro,
2007-02-09,-3.37, -1.48, -7.39, 2.13, 1.63, 7.21, repro,
2007-02-10,-3.35, -2.46, -8.42, 2.04, 1.56, 6.92, repro,
2007-02-11,-2.30, -1.61, -6.89, 2.05, 1.57, 6.97, repro,
2007-02-12,-3.62, -2.51, -9.51, 2.05, 1.56, 6.91, repro,
2007-02-13,-2.20, -2.01, -8.11, 2.10, 1.57, 7.01, repro,
2007-02-14,-3.17, -1.86, -10.48, 2.04, 1.55, 6.86, repro,
2007-02-15,-2.85, -2.22, -7.60, 2.11, 1.58, 7.09, repro,
2007-02-16,-3.97, -3.09, -4.76, 2.11, 1.58, 7.11, repro,
2007-02-17,-3.00, -2.61, -8.91, 2.08, 1.60, 7.02, repro,
2007-02-18,-3.48, -1.93, -5.41, 2.06, 1.55, 6.90, repro,
2007-02-19,-3.28, -2.69, 5.37, 2.09, 1.57, 6.98, repro,
2007-02-20,-3.80, -2.78, 4.39, 2.05, 1.56, 6.91, repro,
2007-02-21,-3.15, -0.14, 3.63, 2.06, 1.56, 6.96, repro,
2007-02-22,-3.26, -1.14, -0.04, 2.04, 1.54, 6.87, repro,
2007-02-23,-2.42, -1.50, 0.02, 2.29, 1.71, 7.45, repro,
2007-02-24,-2.28, -1.99, -1.82, 2.05, 1.55, 6.87, repro,
2007-02-25,-3.24, -2.66, -3.02, 2.03, 1.55, 6.86, repro,
2007-02-26,-2.22, -2.56, -3.70, 2.03, 1.55, 6.88, repro,
2007-02-27,-1.39, -2.39, 3.17, 2.05, 1.56, 6.93, repro,
2007-02-28,-1.90, -2.05, 0.26, 2.05, 1.55, 6.90, repro,
2007-03-01,-2.12, -2.68, -3.09, 2.12, 1.62, 7.15, repro,
2007-03-02,-2.45, -3.19, -8.25, 2.12, 1.63, 7.21, repro,
2007-03-03,-2.56, -1.80, -13.21, 2.09, 1.61, 7.14, repro,
2007-03-04,-2.03, -2.26, -13.63, 2.08, 1.59, 7.06, repro,
2007-03-05,-2.26, -1.92, -13.13, 2.08, 1.58, 7.04, repro,
2007-03-06,-2.08, -2.40, -11.66, 2.15, 1.60, 7.13, repro,
2007-03-07,-2.70, -2.44, -6.83, 2.09, 1.59, 7.09, repro,
2007-03-08,-3.55, -1.34, -6.65, 2.08, 1.58, 7.04, repro,
2007-03-09,-2.64, -1.99, -6.00, 2.08, 1.59, 7.06, repro,
2007-03-10,-2.37, -4.01, -7.27, 2.12, 1.62, 7.21, repro,
2007-03-11,-3.16, -2.07, -14.65, 2.10, 1.58, 7.04, repro,
2007-03-12,-3.08, -3.21, -10.19, 2.14, 1.63, 7.30, repro,
2007-03-13,-4.09, -2.58, -13.60, 2.06, 1.55, 6.92, repro,
2007-03-14,-3.97, -4.80, -6.26, 2.08, 1.59, 7.10, repro,
2007-03-15,-2.80, -2.97, -14.33, 2.07, 1.57, 6.97, repro,
2007-03-16,-3.55, -3.30, -12.40, 2.08, 1.57, 6.95, repro,
2007-03-17,-3.67, -3.13, -7.03, 2.06, 1.54, 6.84, repro,
2007-03-18,-3.81, -4.12, -3.41, 2.10, 1.58, 7.07, repro,
2007-03-19,-3.79, -3.70, -4.34, 2.06, 1.54, 6.91, repro,
2007-03-20,-4.58, -3.91, -3.06, 2.15, 1.61, 7.18, repro,
2007-03-21,-3.96, -3.51, -3.60, 2.15, 1.60, 7.17, repro,
2007-03-22,-3.32, -3.38, -2.60, 2.09, 1.56, 6.99, repro,
2007-03-23,-2.21, -2.53, -9.75, 2.09, 1.56, 6.98, repro,
2007-03-24,-2.25, -2.72, -5.12, 2.10, 1.57, 7.08, repro,
2007-03-25,-3.21, -3.12, -2.15, 2.05, 1.54, 6.89, repro,
2007-03-26,-1.66, -3.28, -7.74, 2.06, 1.53, 6.84, repro,
2007-03-27,-2.31, -2.22, -1.95, 2.12, 1.54, 6.93, repro,
2007-03-28,-3.90, -3.68, -5.38, 2.15, 1.58, 7.16, repro,
2007-03-29,-3.06, -3.97, -12.76, 2.10, 1.58, 7.10, repro,
2007-03-30,-2.70, -2.77, -11.36, 2.06, 1.54, 6.95, repro,
2007-03-31,-1.97, -2.77, -4.93, 2.05, 1.54, 6.90, repro,
2007-04-01,-2.64, -2.63, -3.82, 2.06, 1.54, 6.86, repro,
2007-04-02,-5.51, 0.18, -17.50, 2.07, 1.54, 6.88, repro,
2007-04-03,-1.69, -2.73, -14.64, 2.14, 1.61, 7.25, repro,
2007-04-04,-1.84, -2.52, -14.35, 2.10, 1.59, 7.12, repro,
2007-04-05,-2.59, -2.60, -11.34, 2.15, 1.61, 7.24, repro,
2007-04-06,-1.91, -2.09, -13.53, 2.15, 1.60, 7.21, repro,
2007-04-07,-2.51, -2.70, -3.04, 2.12, 1.58, 7.06, repro,
2007-04-08,-2.59, -2.48, -5.31, 2.08, 1.53, 6.88, repro,
2007-04-09,-2.86, -1.38, -6.19, 2.08, 1.54, 6.94, repro,
2007-04-10,-2.70, -3.77, -3.69, 2.10, 1.59, 7.15, repro,
2007-04-11,-3.04, -2.11, -2.48, 2.08, 1.55, 6.98, repro,
2007-04-12,-2.34, -2.23, -0.93, 2.08, 1.54, 6.91, repro,
2007-04-13,-1.96, -1.65, -6.22, 2.08, 1.53, 6.87, repro,
2007-04-14,-2.61, -1.66, -6.97, 2.09, 1.55, 6.94, repro,
2007-04-15,-2.46, -3.04, -2.54, 2.07, 1.55, 7.00, repro,
2007-04-16,-4.26, -2.55, -7.46, 2.07, 1.54, 6.98, repro,
2007-04-17,-3.21, -2.12, -6.48, 2.08, 1.54, 6.92, repro,
2007-04-18,-2.98, -1.71, -4.94, 2.09, 1.53, 6.93, repro,
2007-04-19,-2.70, -2.76, -4.63, 2.08, 1.54, 6.90, repro,
2007-04-20,-1.98, -2.48, -5.58, 2.08, 1.55, 6.97, repro,
2007-04-21,-2.61, -1.99, -4.37, 2.08, 1.55, 6.98, repro,
2007-04-22,-2.72, -1.90, -2.59, 2.09, 1.54, 6.93, repro,
2007-04-23,-2.58, -1.91, -6.24, 2.10, 1.57, 7.00, repro,
2007-04-24,-1.74, -2.51, -11.11, 2.11, 1.57, 6.99, repro,
2007-04-25,-3.15, -2.67, -7.52, 2.10, 1.57, 6.99, repro,
2007-04-26,-2.15, -2.28, -5.43, 2.09, 1.54, 6.99, repro,
2007-04-27,-2.83, -2.20, -9.15, 2.09, 1.54, 6.96, repro,
2007-04-28,-3.64, -2.85, -8.86, 2.09, 1.54, 6.97, repro,
2007-04-29,-2.27, -3.01, -4.30, 2.09, 1.54, 6.90, repro,
2007-04-30,-4.45, -1.92, -6.03, 2.10, 1.54, 6.93, repro,
2007-05-01,-3.09, -1.69, -8.35, 2.08, 1.53, 6.91, repro,
2007-05-02,-3.16, -2.79, -6.17, 2.16, 1.57, 7.15, repro,
2007-05-03,-3.86, -2.88, -8.45, 2.17, 1.57, 7.15, repro,
2007-05-04,-2.77, -2.15, -4.00, 2.10, 1.53, 6.93, repro,
2007-05-05,-2.36, -3.05, -6.68, 2.13, 1.57, 7.04, repro,
2007-05-06,-3.07, -3.36, -5.02, 2.08, 1.53, 6.90, repro,
2007-05-07,-3.31, -1.33, -7.74, 2.13, 1.58, 7.07, repro,
2007-05-08,-2.03, -1.58, -9.73, 2.14, 1.58, 7.08, repro,
2007-05-09,-3.35, -2.74, -9.10, 2.16, 1.56, 7.12, repro,
2007-05-10,-3.41, -1.57, -10.58, 2.24, 1.67, 7.50, repro,
2007-05-11,-3.00, -2.38, -12.03, 2.19, 1.60, 7.26, repro,
2007-05-12,-4.38, -2.92, -8.91, 2.09, 1.53, 6.93, repro,
2007-05-13,-1.80, -3.35, -11.29, 2.24, 1.58, 7.22, repro,
2007-05-14,-1.71, -2.47, -9.07, 2.10, 1.55, 6.99, repro,
2007-05-15,-2.44, -2.16, -10.75, 2.11, 1.53, 6.93, repro,
2007-05-16,-4.50, -1.74, -7.05, 2.10, 1.53, 6.92, repro,
2007-05-17,-3.80, -2.74, -2.21, 2.20, 1.60, 7.23, repro,
2007-05-18,-3.00, -2.59, -6.22, 2.18, 1.62, 7.25, repro,
2007-05-19,-3.14, -2.19, -6.01, 2.15, 1.57, 7.09, repro,
2007-05-20,-2.63, -2.34, -4.93, 2.30, 1.65, 7.51, repro,
2007-05-21,-1.89, -4.08, -6.07, 2.11, 1.54, 6.96, repro,
2007-05-22,-2.60, -3.70, -3.29, 2.09, 1.53, 6.85, repro,
2007-05-23,-2.41, -1.46, -8.53, 2.14, 1.58, 7.05, repro,
2007-05-24,-2.51, -2.87, -7.71, 2.12, 1.57, 7.01, repro,
2007-05-25,-1.79, -3.01, -11.13, 2.10, 1.55, 6.90, repro,
2007-05-26,-2.35, -1.70, -7.71, 2.15, 1.57, 7.06, repro,
2007-05-27,-2.37, -1.82, -3.89, 2.10, 1.54, 6.93, repro,
2007-05-28,-3.27, -3.13, -8.05, 2.10, 1.54, 6.87, repro,
2007-05-29,-1.62, -2.48, -8.58, 2.09, 1.55, 6.89, repro,
2007-05-30,-1.96, -2.56, -7.51, 2.14, 1.56, 6.94, repro,
2007-05-31,-3.07, -1.85, -6.81, 2.13, 1.59, 7.06, repro,
2007-06-01,-2.52, -1.40, -6.22, 2.11, 1.54, 6.92, repro,
2007-06-02,-2.47, -1.73, -4.84, 2.08, 1.54, 6.87, repro,
2007-06-03,-3.35, -1.54, -1.86, 2.08, 1.55, 6.88, repro,
2007-06-04,-3.10, -3.04, -3.00, 2.08, 1.55, 6.90, repro,
2007-06-05,-2.47, -3.66, -0.55, 2.13, 1.56, 7.03, repro,
2007-06-06,-3.48, -2.36, 2.30, 2.09, 1.54, 6.93, repro,
2007-06-07,-4.00, -2.39, 1.68, 2.09, 1.54, 6.89, repro,
2007-06-08,-3.30, -1.96, -10.73, 2.07, 1.54, 6.86, repro,
2007-06-09,-3.28, -2.52, -10.68, 2.09, 1.57, 6.96, repro,
2007-06-10,-3.53, -1.89, -10.35, 2.08, 1.54, 6.86, repro,
2007-06-11,-3.63, -2.48, -5.48, 2.14, 1.63, 7.22, repro,
2007-06-12,-5.30, -3.14, -11.24, 2.13, 1.63, 7.21, repro,
2007-06-13,-2.19, -2.50, -9.24, 2.10, 1.59, 6.99, repro,
2007-06-14,-2.23, -3.04, -17.19, 2.11, 1.59, 7.00, repro,
2007-06-15,-2.42, -3.09, -9.09, 2.08, 1.55, 6.92, repro,
2007-06-16,-2.67, -1.23, -0.56, 2.09, 1.56, 6.97, repro,
2007-06-17,-1.10, -3.30, -0.55, 2.09, 1.57, 6.99, repro,
2007-06-18,-3.90, -3.04, -7.71, 2.07, 1.55, 6.87, repro,
2007-06-19,-2.59, -3.35, -11.39, 2.07, 1.55, 6.85, repro,
2007-06-20,-3.42, -2.03, -12.51, 2.06, 1.54, 6.82, repro,
2007-06-21,-3.48, -1.97, -3.63, 2.08, 1.55, 6.91, repro,
2007-06-22,-2.61, -1.84, -5.46, 2.08, 1.54, 6.87, repro,
2007-06-23,-3.33, -2.35, -9.72, 2.07, 1.55, 6.88, repro,
2007-06-24,-3.87, -3.18, -8.09, 2.09, 1.59, 7.05, repro,
2007-06-25,-2.98, -3.38, -7.73, 2.08, 1.54, 6.83, repro,
2007-06-26,-2.24, -2.39, -13.39, 2.09, 1.55, 6.92, repro,
2007-06-27,-2.86, -0.56, -6.13, 2.32, 1.66, 7.51, repro,
2007-06-28,-3.84, -1.88, -9.87, 2.08, 1.54, 6.88, repro,
2007-06-29,-2.87, -3.39, -4.44, 2.08, 1.55, 6.91, repro,
2007-06-30,-2.46, -1.94, -5.54, 2.08, 1.55, 6.87, repro,
2007-07-01,-3.27, -2.49, -4.71, 2.08, 1.54, 6.88, repro,
2007-07-02,-4.87, -1.67, -2.45, 2.09, 1.55, 7.00, repro,
2007-07-03,-3.85, -0.52, -2.08, 2.08, 1.55, 6.95, repro,
2007-07-04,-2.77, -1.84, -4.04, 2.14, 1.60, 7.08, repro,
2007-07-05,-2.57, -0.59, -8.86, 2.08, 1.56, 6.92, repro,
2007-07-06,-2.41, -1.37, -4.81, 2.13, 1.62, 7.15, repro,
2007-07-07,-2.31, -3.64, -1.05, 2.09, 1.55, 6.98, repro,
2007-07-08,-4.17, -1.53, 0.81, 2.12, 1.61, 7.09, repro,
2007-07-09,-4.27, -1.54, -0.19, 2.12, 1.61, 7.09, repro,
2007-07-10,-2.37, -1.05, -3.66, 2.10, 1.55, 6.91, repro,
2007-07-11,-3.80, -1.57, -5.48, 2.12, 1.60, 7.14, repro,
2007-07-12,-2.75, -1.63, -3.55, 2.11, 1.61, 7.05, repro,
2007-07-13,-3.33, -2.07, -4.14, 2.07, 1.55, 6.86, repro,
2007-07-14,-2.43, -1.82, -9.20, 2.11, 1.61, 7.14, repro,
2007-07-15,-2.73, -1.56, -0.89, 2.15, 1.63, 7.23, repro,
2007-07-16,-3.07, -2.52, -2.86, 2.13, 1.61, 7.08, repro,
2007-07-17,-3.12, -2.05, -2.79, 2.08, 1.55, 6.93, repro,
2007-07-18,-3.00, -2.37, 4.12, 2.12, 1.62, 7.08, repro,
2007-07-19,-2.83, -1.45, -5.07, 2.08, 1.55, 6.90, repro,
2007-07-20,-3.79, -1.40, 2.10, 2.12, 1.62, 7.12, repro,
2007-07-21,-2.99, -2.50, -0.75, 2.12, 1.60, 7.01, repro,
2007-07-22,-2.99, -0.80, 0.94, 2.17, 1.63, 7.25, repro,
2007-07-23,-3.53, -0.40, -0.71, 2.20, 1.71, 7.33, repro,
2007-07-24,-2.20, -2.86, 4.73, 2.13, 1.63, 7.11, repro,
2007-07-25,-2.16, -2.69, -2.89, 2.17, 1.58, 7.09, repro,
2007-07-26,-3.23, -0.98, 0.66, 2.13, 1.61, 7.11, repro,
2007-07-27,-3.90, -1.67, -2.43, 2.25, 1.70, 7.50, repro,
2007-07-28,-2.29, -0.89, 5.75, 2.13, 1.62, 7.08, repro,
2007-07-29,-3.72, -2.27, -0.88, 2.12, 1.62, 7.08, repro,
2007-07-30,-3.23, -1.27, 2.05, 2.07, 1.56, 6.96, repro,
2007-07-31,-2.99, -1.51, -0.34, 2.09, 1.57, 7.00, repro,
2007-08-01,-2.35, -3.48, 3.94, 2.09, 1.56, 6.95, repro,
2007-08-02,-2.98, -1.39, 3.62, 2.07, 1.55, 6.87, repro,
2007-08-03,-2.91, -1.55, -0.52, 2.08, 1.55, 6.89, repro,
2007-08-04,-2.91, -2.07, 0.07, 2.09, 1.58, 7.11, repro,
2007-08-05,-3.02, -2.63, 10.95, 2.12, 1.62, 7.13, repro,
2007-08-06,-1.22, -2.67, 6.27, 2.14, 1.61, 7.19, repro,
2007-08-07,-1.90, -2.16, 9.14, 2.11, 1.59, 7.01, repro,
2007-08-08,-2.04, -1.45, 4.39, 2.07, 1.54, 6.85, repro,
2007-08-09,-2.50, -2.18, 10.32, 2.12, 1.60, 7.16, repro,
2007-08-10,-3.86, -1.90, 10.14, 2.13, 1.64, 7.38, repro,
2007-08-11,-3.26, -1.55, -0.79, 2.07, 1.55, 6.85, repro,
2007-08-12,-2.60, -2.97, 9.73, 2.07, 1.55, 6.86, repro,
2007-08-13,-1.47, -0.44, 4.16, 2.07, 1.55, 6.85, repro,
2007-08-14,-3.88, -1.57, 5.41, 2.31, 1.76, 7.96, repro,
2007-08-15,-4.00, -2.49, 8.36, 2.24, 1.65, 7.42, repro,
2007-08-16,-2.17, -3.23, 6.62, 2.25, 1.65, 7.44, repro,
2007-08-17,-3.38, -1.10, -2.70, 2.31, 1.72, 7.77, repro,
2007-08-18,-2.91, -1.40, 14.58, 2.37, 1.73, 7.85, repro,
2007-08-19,-3.26, -0.47, 6.17, 2.21, 1.66, 7.44, repro,
2007-08-20,-1.07, -2.39, -1.16, 2.17, 1.60, 7.16, repro,
2007-08-21,-3.54, -3.90, 7.00, 2.18, 1.60, 7.19, repro,
2007-08-22,-2.56, -4.85, 6.72, 2.28, 1.73, 7.55, repro,
2007-08-23,-1.91, -2.14, 6.50, 2.12, 1.57, 6.96, repro,
2007-08-24,-4.18, -1.47, 5.41, 2.25, 1.64, 7.23, repro,
2007-08-25,-2.57, -2.39, 0.30, 2.18, 1.62, 7.17, repro,
2007-08-26,-2.86, -2.03, 2.01, 2.23, 1.67, 7.41, repro,
2007-08-27,-0.18, -1.96, -0.77, 2.27, 1.73, 7.64, repro,
2007-08-28,-4.92, -1.95, 4.01, 2.17, 1.63, 7.16, repro,
2007-08-29,-2.07, -1.18, -3.04, 2.18, 1.64, 7.17, repro,
2007-08-30,-3.38, -1.76, -4.48, 2.22, 1.69, 7.46, repro,
2007-08-31,-3.22, -0.94, -3.74, 2.21, 1.65, 7.32, repro,
2007-09-01,-1.86, -1.22, 0.52, 2.19, 1.64, 7.22, repro,
2007-09-02,-2.05, -0.90, 6.00, 2.17, 1.63, 7.14, repro,
2007-09-03,-2.85, 0.65, -3.49, 2.22, 1.69, 7.33, repro,
2007-09-04,-3.34, -1.44, 2.08, 2.24, 1.70, 7.39, repro,
2007-09-05,-3.32, -2.42, 7.24, 2.21, 1.68, 7.36, repro,
2007-09-06,-2.42, -1.77, 5.79, 2.19, 1.63, 7.19, repro,
2007-09-07,-3.40, -1.86, 6.00, 2.18, 1.63, 7.18, repro,
2007-09-08,-3.79, -2.98, 4.36, 2.31, 1.77, 7.70, repro,
2007-09-09,-2.49, -1.30, 0.70, 2.26, 1.73, 7.51, repro,
2007-09-10,-4.13, -1.63, 3.62, 2.39, 1.70, 7.60, repro,
2007-09-11,-2.74, -1.19, 0.04, 2.20, 1.64, 7.19, repro,
2007-09-12,-1.75, -2.32, 1.88, 2.21, 1.67, 7.30, repro,
2007-09-13,-1.94, -2.03, 4.82, 2.29, 1.63, 7.32, repro,
2007-09-14,-1.87, -1.79, 6.88, 2.22, 1.68, 7.36, repro,
2007-09-15,-2.89, -2.54, 2.48, 2.26, 1.65, 7.35, repro,
2007-09-16,-3.14, -0.55, 3.81, 2.21, 1.63, 7.21, repro,
2007-09-17,-2.98, -2.28, 7.75, 2.25, 1.72, 7.51, repro,
2007-09-18,-1.75, -2.44, 2.83, 2.25, 1.73, 7.49, repro,
2007-09-19,-2.03, -2.09, 6.50, 2.09, 1.56, 6.89, repro,
2007-09-20,-1.73, -0.80, 3.87, 2.10, 1.57, 6.94, repro,
2007-09-21,-2.21, -2.50, 4.09, 2.22, 1.64, 7.33, repro,
2007-09-22,-1.78, -2.15, 2.07, 2.19, 1.61, 7.13, repro,
2007-09-23,-3.84, -3.97, 9.30, 2.25, 1.67, 7.39, repro,
2007-09-24,-2.79, -2.16, 1.86, 2.25, 1.63, 7.31, repro,
2007-09-25,-3.29, -2.00, -0.98, 2.15, 1.61, 7.12, repro,
2007-09-26,-2.22, -3.06, 6.46, 2.32, 1.68, 7.58, repro,
2007-09-27,-3.24, -1.75, 2.53, 2.16, 1.59, 7.11, repro,
2007-09-28,-2.96, -1.50, 4.14, 2.16, 1.64, 7.22, repro,
2007-09-29,-2.34, -1.64, 9.00, 2.19, 1.65, 7.22, repro,
2007-09-30,-2.26, -2.57, 6.79, 2.29, 1.69, 7.42, repro,
2007-10-01,-2.43, -2.10, 4.01, 2.19, 1.66, 7.28, repro,
2007-10-02,-2.08, -2.47, 2.11, 2.23, 1.69, 7.50, repro,
2007-10-03,-3.79, -1.78, 12.51, 2.15, 1.64, 7.20, repro,
2007-10-04,-3.22, -1.47, 10.80, 2.15, 1.63, 7.13, repro,
2007-10-05,-1.56, -2.28, 7.79, 2.23, 1.71, 7.51, repro,
2007-10-06,-4.05, -3.69, 6.47, 2.18, 1.65, 7.24, repro,
2007-10-07,-2.16, -2.25, 4.16, 2.23, 1.66, 7.37, repro,
2007-10-08,-3.39, -1.45, 2.14, 2.44, 1.77, 7.98, repro,
2007-10-09,-2.56, -1.73, 3.35, 2.38, 1.81, 7.82, repro,
2007-10-10,-1.08, -0.63, -0.20, 2.36, 1.70, 7.63, repro,
2007-10-11,-2.85, -3.07, -1.69, 2.19, 1.66, 7.29, repro,
2007-10-12,-2.05, -2.50, 9.19, 2.34, 1.75, 7.71, repro,
2007-10-13,-2.83, -2.34, 8.12, 2.13, 1.61, 7.12, repro,
2007-10-14,-1.92, -2.19, 5.69, 2.19, 1.65, 7.24, repro,
2007-10-15,-2.99, -2.29, 3.11, 2.15, 1.64, 7.16, repro,
2007-10-16,-2.99, -2.03, 7.39, 2.13, 1.60, 7.04, repro,
2007-10-17,-3.49, -1.37, 8.97, 2.21, 1.70, 7.43, repro,
2007-10-18,-1.91, -2.65, 7.72, 2.18, 1.65, 7.25, repro,
2007-10-19,-3.46, -0.19, 8.60, 2.13, 1.60, 7.10, repro,
2007-10-20,-2.52, -1.55, 5.73, 2.15, 1.64, 7.19, repro,
2007-10-21,-2.72, -3.23, 0.53, 2.13, 1.60, 7.04, repro,
2007-10-22,-3.91, -1.44, -6.38, 2.09, 1.59, 6.98, repro,
2007-10-23,-2.83, -1.82, -4.54, 2.20, 1.66, 7.32, repro,
2007-10-24,-3.60, -1.36, -4.51, 2.20, 1.69, 7.43, repro,
2007-10-25,-3.84, -2.09, -2.55, 2.16, 1.63, 7.21, repro,